Location: Clifton Park
(41.4873°N, 81.8024°W)
Time: 06:29:58
(UTC+00:00)

STARLINK-31 - Pass Details

Date: 21 January 2020
Orbit: 528 x 531 km, 53.0° (Epoch: 24 February)

Event Time Altitude Azimuth Distance (km) Brightness Sun altitude
Exits shadow 09:22:43 - 92° (E) 1,922 7.1 -38.3°
Enters shadow 10:26:58 -57° 230° (SW) 11,250 10.3 -26.2°
Maximum altitude 10:58:48 88° 147° (SSE) 532 3.4 -20.3°
